Regional Weather Roundup
Issued by NWS Boston, MA

Current Version | Previous Version | Text Only | Print | Product List | Glossary Off
Versions: 1 2 3 4 5 6 7 8 9 10 11 12 13 14 15 16 17 18 19 20 21 22 23 24 25 26 27 28 29 30 31 32 33 34 35 36 37 38 39 40 41 42 43 44 45 46 47 48 49 50
000 ASUS41 KBOX 232210 RWRBOX REGIONAL WEATHER ROUNDUP NATIONAL WEATHER SERVICE TAUNTON MA 600 PM EDT THU MAR 23 2017 NOTE: "FAIR" INDICATES FEW OR NO CLOUDS BELOW 12,000 FEET WITH NO SIGNIFICANT WEATHER AND/OR OBSTRUCTIONS TO VISIBILITY. MAZALL-232300- EASTERN MASSACHUSETTS CITY SKY/WX TMP DP RH WIND PRES REMARKS BOSTON MOSUNNY 37 -1 20 NW17G26 30.43R WCI 27 BEVERLY SUNNY 36 3 25 NW20G26 30.41R WCI 25 LAWRENCE SUNNY 35 1 23 NW9G21 30.43R WCI 28 BEDFORD SUNNY 36 -2 20 NW16 30.42R WCI 26 BLUE HILL N/A 33 3 28 W16G24 30.39R WCI 23 NORWOOD SUNNY 38 -1 19 NW10G23 30.43S WCI 31 MARSHFIELD SUNNY 37 0 20 W8G24 30.42R WCI 31 PLYMOUTH SUNNY 37 -1 20 NW6 30.42R TAUNTON SUNNY 39 -2 17 NW9 30.43R NEW BEDFORD SUNNY 39 0 19 W13 30.43R WCI 31 $$ MAZALL-232300- CAPE COD AND THE ISLANDS CITY SKY/WX TMP DP RH WIND PRES REMARKS FALMOUTH N/A 37 -4 17 MISG 30.43R HYANNIS CLEAR 38 2 22 NW8G20 30.41R CHATHAM CLEAR 36 8 31 NW8 30.43R WCI 30 PROVINCETOWN CLEAR 36 9 32 NW18 30.43R WCI 26 NANTUCKET CLEAR 36 2 23 W15G23 30.43S WCI 27 MARTHAS VNYRD SUNNY 38 0 20 W13 30.44R WCI 30 $$ MAZALL-232300- CENTRAL AND WESTERN MASSACHUSETTS CITY SKY/WX TMP DP RH WIND PRES REMARKS WORCESTER SUNNY 32 -3 22 NW13 30.40R WCI 22 FITCHBURG SUNNY 37 4 25 NW10G22 30.43R WCI 30 ORANGE SUNNY 33 2 26 NW12G22 30.43S WCI 24 SPRINGFIELD SUNNY 37 3 24 W9G18 30.44S WCI 30 WESTFIELD SUNNY 36 4 26 NW14 30.46S WCI 27 NORTH ADAMS SUNNY 34 5 29 W8 30.44S WCI 27 PITTSFIELD SUNNY 30 2 30 W13 30.41S WCI 20 $$ RIZALL-232300- RHODE ISLAND CITY SKY/WX TMP DP RH WIND PRES REMARKS PROVIDENCE MOSUNNY 39 -3 17 NW13G21 30.44S WCI 31 NEWPORT SUNNY 38 1 21 NW13 30.44R WCI 30 BLOCK ISLAND SUNNY 37 5 26 W10G17 30.46S WCI 30 SMITHFIELD SUNNY 36 0 21 NW14 30.43R WCI 27 WESTERLY SUNNY 39 -2 17 W8 30.47R $$ CTZALL-232300- CONNECTICUT CITY SKY/WX TMP DP RH WIND PRES REMARKS BRADLEY INTL MOSUNNY 37 1 22 NW12 30.47S WCI 29 HARTFORD SUNNY 38 1 21 N13 30.49S WCI 30 BRIDGEPORT SUNNY 43 -3 14 NW13 30.49S DANBURY SUNNY 38 -3 17 VRB7 30.47F GROTON SUNNY 39 -1 18 NW16G23 30.47S WCI 30 NEW HAVEN SUNNY 39 0 19 NW8G16 30.50R CHESTER FAIR 37 -4 17 VRB7G15 30.47R MERIDEN SUNNY 39 0 19 NW9 30.49R WILLIMANTIC SUNNY 38 0 20 W13G18 30.48R WCI 30 OXFORD SUNNY 36 0 21 NW9 30.47S WCI 29 $$ MEZ002-015-021-024-NHZ003-005-008-011-012-014-VTZ005-008-232300- NORTHERN NEW ENGLAND CITY SKY/WX TMP DP RH WIND PRES REMARKS PORTLAND ME CLEAR 33 0 24 NW14G26 30.38R WCI 23 BANGOR ME CLEAR 26 -1 31 NW16 30.33R WCI 14 CONCORD NH SUNNY 35 2 24 NW13 30.41R WCI 26 MANCHESTER NH MOSUNNY 37 -1 20 NW13G22 30.40 WCI 29 NASHUA NH NOT AVBL PORTSMOUTH NH CLEAR 35 0 22 NW17G28 30.39R WCI 24 JAFFREY NH NOT AVBL KEENE NH NOT AVBL BURLINGTON VT MOSUNNY 33 6 32 N10 30.45S WCI 25 MT. WASHINGTON MOSUNNY 0 -9 65 NW53G60 N/A WCI -32 $$ NYZ052-076-232300- EASTERN NEW YORK CITY SKY/WX TMP DP RH WIND PRES REMARKS ALBANY MOSUNNY 35 6 29 W17 30.48F WCI 25 NEW YORK CITY MOSUNNY 44 2 17 NW10 30.50S $$ ANZALL-232300- MARINE OBSERVATIONS STATION/POSITION TIME TEMP WIND PRES VSBY WAVE AIR SEA DIR/SP/G HT/PER (UTC) (F) (DEG/KT/KT) (MB) (MI) (FT/S) BOSTON BUOY 2150 37 40 280/ 16/ 19 1029.5R 3/ 4 BUZZARDS BAY 2200 38 300/ 14/ 16 1031.4S NANTUCKET SOUND 2150 39 1030.1R 2/ 3 MASS BAY-STELLWA 2104 36 39 300/ 17/ 21 1028.4S 4/ 3 ISLE OF SHOALS 2200 35 300/ 26/ 30 1028.7R S OF BLOCK IS 2155 40 N/A 4/ 5 $$ ......................KEY......................... SKY/WX - SKY CONDITION/PRESENT WEATHER TMP - TEMPERATURE IN FAHRENHEIT DWPT - DEWPOINT IN FAHRENHEIT RH - RELATIVE HUMIDITY IN PERCENT WIND - DIRECTION AND SPEED IN MPH PRES - MEAN SEA LEVEL PRESSURE IN INCHES OF HG WCI - WIND CHILL INDEX VSB - VISIBILITY IN MILES HX - HEAT INDEX TC - TEMPERATURE IN CELSIUS VRB - VARIABLE WIND DIRECTION N/A - NOT AVAILABLE

USA.gov is the U.S. government's official web portal to all federal, state and local government web resources and services.